Weather History for Oakes, ND

Change the Weather History Date:

Wednesday, November 20, 2013

  Actual Average (KABR) Record (KABR)
Temperature  
Mean Temperature 27 °F 27 °F  
Max Temperature 35 °F 37 °F 69 °F (1962)
Min Temperature 19 °F 17 °F -12 °F (1978)
Degree Days  
Heating Degree Days 38 38  
Month to date heating degree days 659  
Since 1 July heating degree days 1550  
Cooling Degree Days 0 0  
Month to date cooling degree days 0  
Year to date cooling degree days 525  
Moisture  
Dew Point 24 °F    
Average Humidity 85    
Maximum Humidity 100    
Minimum Humidity 69    
Precipitation  
Precipitation 0.00 in 0.03 in 0.83 in (1953)
Month to date precipitation 0.53  
Year to date precipitation 21.00  
Snow  
Snow 0.00 in - - ()
Month to date snowfall  
Since 1 July snowfall  
Snow Depth -    
Sea Level Pressure  
Sea Level Pressure 29.87 in    
Wind  
Wind Speed 11 mph (NNW)    
Max Wind Speed 26 mph    
Max Gust Speed 32 mph    
Visibility 10 miles    
Events Snow    
T = Trace of Precipitation, MM = Missing Value Source: NWS Daily Summary

Daily Weather History Graph

Daily Weather History Graph

Search for Another Location

Airport:

Trip Planner

Search our weather history database for the weather conditions in past years. The results will help you decide how hot, cold, wet, or windy it might be!

Date:

Astronomy

Nov. 20, 2013 Rise Set
Actual Time 7:40 AM CST 4:55 PM CST
Civil Twilight 7:07 AM CST 5:28 PM CST
Nautical Twilight 6:30 AM CST 6:04 PM CST
Astronomical Twilight 5:55 AM CST 6:40 PM CST
Moon 7:39 PM CST (11/20) 10:07 AM CST (11/20)
Length of Visible Light 10h 20m
Length of Day
9h 14m
Waning Gibbous, 91% of the Moon is Illuminated
Nov 20
Waning Gibbous
Nov 25
Last Quarter
Dec 2
New
Dec 9
First Quarter
Dec 17
Full

Hourly Weather History & Observations

Time (CST) Temp. Windchill Dew Point Humidity Pressure Visibility Wind Dir Wind Speed Gust Speed Precip Events Conditions
12:15 AM 33.8 °F 29.6 °F 32.0 °F 93% 29.60 in 10.0 mi West 4.6 mph - N/A   Clear
12:35 AM 33.8 °F 29.6 °F 32.0 °F 93% 29.61 in 10.0 mi West 4.6 mph - N/A   Clear
12:55 AM 35.6 °F 30.7 °F 32.0 °F 87% 29.62 in 10.0 mi SW 5.8 mph - N/A   Clear
1:15 AM 35.6 °F 30.7 °F 32.0 °F 87% 29.62 in 10.0 mi West 5.8 mph - N/A   Clear
1:35 AM 33.8 °F 29.6 °F 32.0 °F 93% 29.63 in 10.0 mi West 4.6 mph - N/A   Clear
1:55 AM 33.8 °F - 32.0 °F 93% 29.64 in 10.0 mi Calm Calm - N/A   Clear
2:15 AM 32.0 °F - 30.2 °F 93% 29.65 in 10.0 mi Calm Calm - N/A   Clear
2:35 AM 32.0 °F - 30.2 °F 93% 29.65 in 10.0 mi Calm Calm - N/A   Clear
2:55 AM 32.0 °F - 30.2 °F 93% 29.66 in 10.0 mi Calm Calm - N/A   Clear
3:15 AM 32.0 °F 26.4 °F 28.4 °F 87% 29.67 in 10.0 mi NW 5.8 mph - N/A   Clear
3:35 AM 28.4 °F 21.2 °F 28.4 °F 100% 29.68 in 10.0 mi NW 6.9 mph - N/A   Clear
3:55 AM 28.4 °F - 28.4 °F 100% 29.69 in 10.0 mi North - - N/A   Clear
4:15 AM 30.2 °F 21.9 °F 28.4 °F 93% 29.70 in 10.0 mi NW 9.2 mph - N/A   Clear
4:35 AM 32.0 °F 22.5 °F 30.2 °F 93% 29.71 in 10.0 mi NNW 12.7 mph - N/A   Clear
4:55 AM 30.2 °F 20.8 °F 30.2 °F 100% 29.72 in 10.0 mi NNW 11.5 mph - N/A   Clear
5:15 AM 30.2 °F 20.2 °F 28.4 °F 93% 29.73 in 10.0 mi North 12.7 mph - N/A   Clear
5:35 AM 28.4 °F 17.5 °F 28.4 °F 100% 29.74 in 10.0 mi North 13.8 mph - N/A   Clear
5:55 AM 28.4 °F 18.0 °F 28.4 °F 100% 29.75 in 10.0 mi NNW 12.7 mph - N/A   Clear
6:15 AM 28.4 °F 17.0 °F 26.6 °F 93% 29.76 in 10.0 mi NNW 15.0 mph - N/A   Clear
6:35 AM 26.6 °F 14.3 °F 26.6 °F 100% 29.77 in 10.0 mi NNW 16.1 mph 23.0 mph N/A   Clear
6:55 AM 26.6 °F 15.2 °F 26.6 °F 100% 29.78 in 10.0 mi NNW 13.8 mph - N/A   Clear
7:15 AM 26.6 °F 14.7 °F 24.8 °F 93% 29.79 in 10.0 mi NNW 15.0 mph - N/A   Clear
7:35 AM 24.8 °F 12.4 °F 24.8 °F 100% 29.80 in 9.0 mi NNW 15.0 mph - N/A   Clear
7:55 AM 24.8 °F 11.5 °F 24.8 °F 100% 29.82 in 8.0 mi NNW 17.3 mph - N/A   Clear
8:15 AM 24.8 °F 11.5 °F 24.8 °F 100% 29.83 in 8.0 mi NNW 17.3 mph 21.9 mph N/A   Clear
8:35 AM 24.8 °F 12.4 °F 24.8 °F 100% 29.83 in 9.0 mi NNW 15.0 mph 19.6 mph N/A   Clear
8:55 AM 26.6 °F 13.8 °F 24.8 °F 93% 29.83 in 9.0 mi NNW 17.3 mph 20.7 mph N/A   Clear
9:15 AM 26.6 °F 14.7 °F 24.8 °F 93% 29.85 in 10.0 mi North 15.0 mph - N/A   Clear
9:35 AM 28.4 °F 17.0 °F 24.8 °F 86% 29.85 in 10.0 mi North 15.0 mph 20.7 mph N/A   Clear
9:55 AM 28.4 °F 16.2 °F 24.8 °F 86% 29.87 in 10.0 mi North 17.3 mph - N/A   Clear
10:15 AM 28.4 °F 15.1 °F 24.8 °F 86% 29.87 in 10.0 mi North 20.7 mph - N/A   Clear
10:35 AM 30.2 °F 18.9 °F 24.8 °F 80% 29.87 in 10.0 mi North 16.1 mph 23.0 mph N/A   Clear
10:55 AM 32.0 °F 20.8 °F 23.0 °F 69% 29.87 in 10.0 mi NNE 17.3 mph 21.9 mph N/A   Clear
11:15 AM 32.0 °F 20.8 °F 23.0 °F 69% 29.88 in 10.0 mi North 17.3 mph - N/A   Clear
11:35 AM 32.0 °F 20.5 °F 23.0 °F 69% 29.87 in 10.0 mi North 18.4 mph 23.0 mph N/A   Clear
11:55 AM 32.0 °F 20.5 °F 24.8 °F 75% 29.87 in 10.0 mi North 18.4 mph 23.0 mph N/A   Clear
12:15 PM 32.0 °F 20.8 °F 24.8 °F 75% 29.87 in 10.0 mi North 17.3 mph 20.7 mph N/A   Clear
12:35 PM 32.0 °F 21.2 °F 24.8 °F 75% 29.86 in 10.0 mi North 16.1 mph - N/A   Clear
12:55 PM 32.0 °F 21.2 °F 24.8 °F 75% 29.87 in 10.0 mi North 16.1 mph - N/A   Partly Cloudy
1:15 PM 32.0 °F 21.2 °F 24.8 °F 75% 29.86 in 10.0 mi North 16.1 mph - N/A   Clear
1:35 PM 32.0 °F 21.6 °F 24.8 °F 75% 29.85 in 10.0 mi NNE 15.0 mph - N/A   Clear
1:55 PM 32.0 °F 21.6 °F 24.8 °F 75% 29.86 in 10.0 mi North 15.0 mph - N/A   Clear
2:15 PM 32.0 °F 21.2 °F 24.8 °F 75% 29.86 in 10.0 mi North 16.1 mph - N/A   Clear
2:35 PM 32.0 °F 20.8 °F 24.8 °F 75% 29.86 in 10.0 mi North 17.3 mph - N/A   Clear
2:55 PM 32.0 °F 21.6 °F 23.0 °F 69% 29.87 in 8.0 mi North 15.0 mph - N/A   Clear
3:15 PM 32.0 °F 21.2 °F 23.0 °F 69% 29.88 in 10.0 mi North 16.1 mph - N/A   Clear
3:35 PM 32.0 °F 21.2 °F 23.0 °F 69% 29.88 in 10.0 mi NNE 16.1 mph - N/A   Clear
3:55 PM 32.0 °F 22.1 °F 23.0 °F 69% 29.89 in 10.0 mi NNE 13.8 mph - N/A   Clear
4:15 PM 30.2 °F 20.8 °F 23.0 °F 75% 29.90 in 10.0 mi North 11.5 mph - N/A   Clear
4:35 PM 30.2 °F 20.2 °F 23.0 °F 75% 29.92 in 10.0 mi North 12.7 mph - N/A   Clear
4:55 PM 28.4 °F 19.1 °F 23.0 °F 80% 29.93 in 10.0 mi North 10.4 mph - N/A   Clear
5:15 PM 28.4 °F 19.7 °F 23.0 °F 80% 29.95 in 10.0 mi North 9.2 mph - N/A   Scattered Clouds
5:35 PM 28.4 °F 16.6 °F 23.0 °F 80% 29.96 in 10.0 mi North 16.1 mph 20.7 mph N/A   Mostly Cloudy
5:55 PM 26.6 °F 15.2 °F 23.0 °F 86% 29.97 in 10.0 mi North 13.8 mph - N/A   Scattered Clouds
6:15 PM 26.6 °F 15.2 °F 23.0 °F 86% 29.99 in 10.0 mi North 13.8 mph - N/A   Clear
6:35 PM 24.8 °F 14.0 °F 21.2 °F 86% 30.00 in 10.0 mi North 11.5 mph - N/A   Clear
6:55 PM 24.8 °F 13.4 °F 21.2 °F 86% 30.01 in 10.0 mi North 12.7 mph - N/A   Mostly Cloudy
7:15 PM 24.8 °F 12.9 °F 19.4 °F 80% 30.02 in 10.0 mi North 13.8 mph 20.7 mph N/A   Mostly Cloudy
7:35 PM 24.8 °F 11.5 °F 19.4 °F 80% 30.04 in 10.0 mi North 17.3 mph 25.3 mph N/A   Mostly Cloudy
7:55 PM 24.8 °F 10.7 °F 19.4 °F 80% 30.05 in 10.0 mi North 19.6 mph 25.3 mph N/A   Mostly Cloudy
8:15 PM 24.8 °F 10.0 °F 19.4 °F 80% 30.06 in 10.0 mi NNW 21.9 mph 27.6 mph N/A   Overcast
8:35 PM 24.8 °F 10.7 °F 19.4 °F 80% 30.08 in 10.0 mi North 19.6 mph 32.2 mph N/A   Overcast
8:55 PM 23.0 °F 6.9 °F 17.6 °F 80% 30.09 in 10.0 mi North 24.2 mph 28.8 mph N/A   Overcast
9:15 PM 23.0 °F 8.3 °F 17.6 °F 80% 30.10 in 10.0 mi NNW 19.6 mph 25.3 mph N/A   Overcast
9:35 PM 23.0 °F 8.0 °F 17.6 °F 80% 30.11 in 10.0 mi North 20.7 mph 25.3 mph N/A   Overcast
9:55 PM 23.0 °F 8.3 °F 17.6 °F 80% 30.12 in 10.0 mi North 19.6 mph 25.3 mph N/A   Mostly Cloudy
10:15 PM 23.0 °F 8.3 °F 15.8 °F 74% 30.13 in 10.0 mi NNW 19.6 mph 28.8 mph N/A   Mostly Cloudy
10:35 PM 23.0 °F 8.3 °F 17.6 °F 80% 30.15 in 10.0 mi NNW 19.6 mph - N/A   Mostly Cloudy
10:55 PM 21.2 °F 5.6 °F 15.8 °F 80% 30.15 in 10.0 mi NNW 20.7 mph 26.5 mph N/A   Mostly Cloudy
11:15 PM 21.2 °F 4.5 °F 15.8 °F 80% 30.15 in 10.0 mi NNW 24.2 mph 27.6 mph N/A   Mostly Cloudy
11:35 PM 19.4 °F 1.4 °F 14.0 °F 80% 30.17 in 10.0 mi NNW 26.5 mph 31.1 mph N/A Snow Light Snow
11:55 PM 19.4 °F 2.5 °F 14.0 °F 80% 30.19 in 10.0 mi NNW 23.0 mph 29.9 mph N/A Snow Light Snow